Regional Weather Roundup
Issued by NWS

Home | Current Version | Previous Version | Graphics & Text | Print | Product List | Glossary On
Versions: 1 2 3 4 5 6 7 8 9 10 11 12 13 14 15 16 17 18 19 20 21 22 23 24 25 26 27
000
ASUS45 KCYS 061610
RWRWY

WYOMING REGIONAL WEATHER ROUNDUP
NATIONAL WEATHER SERVICE CHEYENNE WY
900 AM MST TUE DEC 06 2016

NOTE:  "FAIR" INDICATES FEW OR NO CLOUDS BELOW 12,000 FEET
WITH NO SIGNIFICANT WEATHER AND/OR OBSTRUCTIONS TO VISIBILITY.

WYZ001-061700-
YELLOWSTONE NATIONAL PARK

CITY           SKY/WX    TMP DP  RH WIND       PRES   REMARKS
LK YELLOWSTONE   N/A     -8 -10  91 NW3       29.76S
W YELLOWSTONE  NOT AVBL

$$
WYZ002>013-054>058-071-098>099-061700-
NORTHERN WYOMING

CITY           SKY/WX    TMP DP  RH WIND       PRES   REMARKS
JACKSON        FAIR     -17 -20  83 N6        29.89S WCI -31
CODY           FLURRIES   4   1  88 CALM      29.93R
GREYBULL       FAIR       5   1  83 SE3       30.01R
WORLAND        FAIR       5   0  79 S6        29.98S WCI  -6
SHERIDAN       CLOUDY     7   1  76 W10       30.03S WCI  -8
BUFFALO        CLOUDY     6   0  76 NW7       29.96R WCI  -6
GILLETTE       FAIR       1  -2  87 W9        29.99R WCI -14
HULETT         FAIR       5   0  78 MISG      29.99R
NEWCASTLE      FAIR       7   0  72 NW14G21   30.00R WCI -10

$$
WYZ014>020-022>026-101>103-061700-
CENTRAL WYOMING

CITY           SKY/WX    TMP DP  RH WIND       PRES   REMARKS
BIG PINEY      FAIR     -12 -16  82 CALM      29.87S
PINEDALE       FAIR     -13 -18  77 NW8       29.87S WCI -30
DUBOIS         FAIR      -2 -15  55 NW17G24   29.77S WCI -24
LANDER         FAIR       6  -6  57 CALM      29.88S
RIVERTON       FAIR       6  -3  66 CALM      29.91R
CASPER         FAIR      -2 -10  69 W12       29.92S WCI -20
DOUGLAS        FAIR       0  -5  79 SE3       29.97R

$$
WYZ021-027>030-104>119-061700-
SOUTHERN WYOMING

CITY           SKY/WX    TMP DP  RH WIND       PRES   REMARKS
EVANSTON       CLOUDY     2 -12  52 E10       29.78F WCI -14
KEMMERER         N/A     -4 -11  71 N10       29.81R WCI -21
FORT BRIDGER   PTSUNNY   -2  -8  77 NE5       29.86R WCI -12
ROCK SPRINGS   FAIR      -1 -10  65 NE3       29.85S
DIXON          FAIR       1 -12  53 E8        29.92S WCI -13
RAWLINS        FAIR       1  -9  62 S5        29.88R WCI  -9
SARATOGA       FAIR       0 -13  55 S5        29.87S WCI -10
LARAMIE        FAIR       5 -10  50 S8        29.83S WCI  -8
CHEYENNE       FAIR      17 -16  22 NW10      29.89R WCI   5
TORRINGTON     FAIR      14   4  64 N7        29.99R WCI   4
PINE BLUFFS    FAIR      14   1  57 SW8       29.95R WCI   3

$$




USA.gov is the U.S. government's official web portal to all federal, state and local government web resources and services.